Regional Weather Roundup
Issued by NWS Spokane, WA

Home | Current Version | Previous Version | Text Only | Print | Product List | Glossary On
Versions: 1 2 3 4 5 6 7 8 9 10 11 12 13 14 15 16 17 18 19 20 21 22 23 24 25 26 27 28 29 30 31 32 33 34 35 36 37 38 39 40 41 42 43 44 45 46 47 48 49 50
000
NZUS01 KOTX 271305
RWROTX

Eastern Washington/Northern Idaho Roundup
National Weather Service, Spokane WA
600 AM PDT TUE JUN 27 2017

Note: "fair" indicated few or no clouds below 12,000 feet with no
significant weather and/or obstructions to visibility.

...Northeast Washington and Northern Idaho Panhandle...

CITY           SKY/WX    TMP DP  RH WIND       PRES   REMARKS
Spokane Intl   MOCLDY    59  55  87 S8        29.84R
Spokane Downto PTCLDY    63  55  75 SW6       29.84R
Coeur d Alene  PTCLDY    59  54  83 CALM      29.86R
Deer Park      PTCLDY    56  53  90 MISG      29.84R
Sandpoint      CLEAR     59  57  94 S5        29.82R
Bonners Ferry  FAIR      61  55  82 SW6       29.81R

...Southeast Washington and southern Idaho Panhandle...

CITY           SKY/WX    TMP DP  RH WIND       PRES   REMARKS
Walla Walla    MOCLDY    66  51  58 S13       29.90R
Pullman/Moscow CLOUDY    62  51  67 W7        29.91R
Lewiston       MOCLDY    66  56  70 CALM      29.85R
Lowell           N/A     61  57  87 CALM      29.88R
Grangeville    FAIR      61  46  59 S6        29.91S

...Columbia Basin...

CITY           SKY/WX    TMP DP  RH WIND       PRES   REMARKS
Ephrata        PTCLDY    64  31  28 W6        29.83R
Moses Lake     MOCLDY    65  39  38 SW6       29.83R
Pasco          PTCLDY    65  53  65 S9        29.85R
Richland       MOSUNNY   65  55  69 S5        29.85R
Hermiston      CLEAR     64  51  62 SW14G22   29.88R
Pendleton      PTCLDY    59  50  72 SW8       29.92R

...East Slopes Cascades...

CITY           SKY/WX    TMP DP  RH WIND       PRES   REMARKS
The Dalles     PTCLDY    63  51  65 NW17      29.94R
Yakima         MOCLDY    65  40  39 W7        29.88R
Ellensburg     PTCLDY    59  44  57 NW20G31   29.89R
Stampede Pass  FOG       45  45 100 SW8       30.03R VSB<1/4
Wenatchee      CLEAR     62  40  44 NW7       29.87R
Omak           PTCLDY    66  31  27 N13       29.85R
Sunnyside      MOSUNNY   56  51  83 NE5       29.85R

...Southern British Columbia...

CITY           SKY/WX    TMP DP  RH WIND       PRES   REMARKS

...Western Montana...

CITY           SKY/WX    TMP DP  RH WIND       PRES   REMARKS
Kalispell      CLOUDY    58  58 100 N5        29.82S
Missoula       LGT RAIN  61  57  87 E6        29.88F

...Neighboring Cities...

CITY           SKY/WX    TMP DP  RH WIND       PRES   REMARKS
Seattle        CLOUDY    55  49  80 SW8       30.06R
Portland       CLOUDY    57  48  72 N3        30.06S
Boise          MOCLDY    64  51  62 CALM      29.91S
Great Falls    MOSUNNY   64  50  60 SW17G26   29.76R



USA.gov is the U.S. government's official web portal to all federal, state and local government web resources and services.